Find Starlink 32005

NORAD ID: 60034 Int'l Des: 2024-111 Owner: SPXS Country: US Constellation: starlink operational
LEOCIRCULAR

实时位置

正在加载3D地球...

关于 Starlink 32005

正在加载描述...

即将过境

Passes for default location (London). Set your location on the main map for personalized predictions.

高度历史

Loading altitude history...

两行轨道根数

1 60034U 24111U 26126.48796551 -.00000823 00000-0 -15684-4 0 9997
2 60034 53.1604 167.0873 0001142 87.6468 272.4663 15.30186142107787
Epoch: May 6, 2026 • Age: 22 hours

当前状态

高度 481.0 km
速度 7.63 km/s
星下点 53.24°N, 119.13°W
发射日期 Jun 8, 2024
运行时间 1.9 years
类型 internet

技术详情

分类 Payload
质量 730.00 kg
干质量 700.00 kg
总质量 730.00 kg
长度 0.30 m
直径 4.10 m
跨度 29.00 m
形状 Box + pan
制造商 SPXS
平台类型 Starlink V2M
阶段状态 In Orbit
所有者/国家 SPXS/US

Most Searched